QPF
0.02 0.02 0.04 0.04 0.04 0.04 0.05 0.04 0.03 0.04 0.06 0.06 0.03 0.03 0.05 0.04 0.03 0.04 0.04 0.04 0.03 0.04 0.03 0.01 0.01 0.01 0.00 0.00 0.00 0.00 0.00 0.00 0.00 0.00 0.00 0.00 0.00 0.00 0.00 0.00 0.00 0.00 0.00 0.00
0.01 0.02 0.03 0.03 0.03 0.04 0.05 0.06 0.05 0.04 0.05 0.06 0.04 0.03 0.03 0.04 0.05 0.04 0.03 0.03 0.03 0.04 0.03 0.01 0.01 0.01 0.00 0.00 0.00 0.00 0.00 0.00 0.00 0.00 0.00 0.00 0.00 0.00 0.00 0.00 0.00 0.00 0.00 0.00
0.00 0.01 0.02 0.02 0.02 0.03 0.03 0.03 0.04 0.04 0.05 0.06 0.06 0.04 0.03 0.04 0.06 0.05 0.02 0.02 0.03 0.04 0.03 0.02 0.02 0.01 0.00 0.00 0.00 0.00 0.00 0.00 0.00 0.00 0.00 0.00 0.00 0.00 0.00 0.00 0.00 0.00 0.00 0.00
0.00 0.01 0.02 0.02 0.02 0.03 0.03 0.02 0.03 0.04 0.05 0.07 0.07 0.05 0.03 0.04 0.05 0.04 0.02 0.01 0.02 0.03 0.03 0.03 0.02 0.01 0.01 0.00 0.00 0.00 0.00 0.00 0.00 0.00 0.00 0.00 0.00 0.00 0.00 0.00 0.00 0.00 0.00 0.00
0.01 0.00 0.01 0.02 0.02 0.03 0.04 0.02 0.04 0.06 0.04 0.05 0.06 0.04 0.02 0.03 0.05 0.03 0.01 0.01 0.01 0.02 0.02 0.02 0.02 0.01 0.01 0.00 0.00 0.00 0.00 0.00 0.00 0.00 0.00 0.00 0.00 0.00 0.00 0.00 0.00 0.00 0.00 0.00
0.01 0.01 0.01 0.01 0.02 0.02 0.03 0.03 0.05 0.08 0.06 0.04 0.03 0.03 0.02 0.01 0.02 0.02 0.01 0.01 0.01 0.02 0.02 0.02 0.02 0.02 0.01 0.00 0.00 0.00 0.00 0.00 0.00 0.00 0.00 0.00 0.00 0.00 0.00 0.00 0.00 0.00 0.00 0.00
0.01 0.01 0.01 0.01 0.02 0.03 0.02 0.02 0.04 0.07 0.07 0.04 0.02 0.01 0.01 0.00 0.00 0.00 0.01 0.01 0.01 0.01 0.01 0.01 0.01 0.01 0.01 0.01 0.00 0.00 0.00 0.00 0.00 0.00 0.00 0.00 0.00 0.00 0.00 0.00 0.00 0.00 0.00 0.00
0.01 0.01 0.01 0.01 0.02 0.02 0.01 0.01 0.01 0.02 0.03 0.02 0.02 0.01 0.00 0.00 0.00 0.00 0.01 0.01 0.00 0.01 0.01 0.01 0.01 0.01 0.01 0.01 0.00 0.00 0.00 0.00 0.00 0.00 0.00 0.00 0.00 0.00 0.00 0.00 0.00 0.00 0.00 0.00
0.01 0.01 0.01 0.01 0.01 0.01 0.02 0.01 0.01 0.01 0.01 0.01 0.01 0.01 0.00 0.00 0.00 0.00 0.00 0.00 0.00 0.00 0.01 0.01 0.01 0.01 0.01 0.01 0.01 0.00 0.00 0.00 0.00 0.00 0.00 0.00 0.00 0.00 0.00 0.00 0.00 0.00 0.00 0.00
0.01 0.01 0.02 0.01 0.01 0.01 0.02 0.02 0.02 0.02 0.01 0.01 0.01 0.00 0.00 0.00 0.00 0.00 0.00 0.00 0.01 0.01 0.01 0.02 0.02 0.01 0.01 0.01 0.01 0.00 0.00 0.00 0.00 0.00 0.00 0.00 0.00 0.00 0.00 0.00 0.00 0.00 0.00 0.00
0.00 0.00 0.01 0.01 0.02 0.01 0.01 0.01 0.02 0.01 0.01 0.01 0.00 0.00 0.00 0.00 0.00 0.00 0.00 0.00 0.01 0.01 0.01 0.01 0.02 0.02 0.01 0.01 0.01 0.00 0.00 0.00 0.00 0.00 0.00 0.00 0.00 0.00 0.00 0.00 0.00 0.00 0.00 0.00
0.00 0.00 0.01 0.01 0.01 0.01 0.01 0.01 0.01 0.01 0.02 0.01 0.00 0.00 0.00 0.00 0.01 0.01 0.00 0.01 0.01 0.02 0.02 0.01 0.01 0.02 0.01 0.01 0.01 0.00 0.00 0.00 0.00 0.00 0.00 0.00 0.00 0.00 0.00 0.00 0.00 0.00 0.00 0.00
0.01 0.01 0.01 0.01 0.01 0.01 0.01 0.01 0.01 0.01 0.01 0.01 0.01 0.01 0.01 0.00 0.00 0.01 0.01 0.01 0.01 0.02 0.02 0.02 0.01 0.01 0.01 0.01 0.00 0.00 0.01 0.01 0.00 0.00 0.00 0.00 0.00 0.00 0.00 0.00 0.00 0.00 0.00 0.00
0.01 0.01 0.01 0.02 0.02 0.01 0.01 0.01 0.01 0.01 0.01 0.01 0.01 0.01 0.01 0.01 0.00 0.00 0.00 0.01 0.01 0.02 0.02 0.02 0.02 0.01 0.01 0.01 0.00 0.01 0.01 0.01 0.00 0.00 0.00 0.00 0.00 0.00 0.00 0.00 0.00 0.00 0.00 0.00
0.01 0.01 0.01 0.01 0.01 0.01 0.01 0.01 0.01 0.01 0.01 0.01 0.00 0.00 0.00 0.00 0.00 0.00 0.00 0.00 0.00 0.01 0.01 0.01 0.01 0.01 0.01 0.01 0.01 0.01 0.00 0.00 0.00 0.00 0.00 0.00 0.00 0.00 0.00 0.00 0.00 0.00 0.00 0.00
0.01 0.01 0.00 0.00 0.01 0.01 0.01 0.01 0.01 0.01 0.01 0.01 0.00 0.00 0.00 0.00 0.00 0.00 0.00 0.00 0.00 0.00 0.01 0.01 0.01 0.00 0.00 0.00 0.01 0.01 0.00 0.00 0.00 0.00 0.00 0.00 0.00 0.00 0.00 0.00 0.00 0.00 0.00 0.00
0.01 0.01 0.01 0.01 0.01 0.01 0.02 0.01 0.01 0.00 0.00 0.00 0.00 0.00 0.00 0.00 0.00 0.00 0.00 0.00 0.00 0.00 0.01 0.00 0.00 0.00 0.00 0.00 0.01 0.01 0.01 0.01 0.00 0.00 0.00 0.00 0.00 0.00 0.00 0.00 0.00 0.00 0.00 0.00
0.01 0.01 0.00 0.00 0.01 0.01 0.01 0.00 0.00 0.01 0.00 0.00 0.00 0.00 0.00 0.01 0.00 0.00 0.00 0.00 0.00 0.00 0.01 0.00 0.00 0.00 0.00 0.01 0.01 0.01 0.01 0.01 0.01 0.01 0.00 0.00 0.00 0.00 0.00 0.00 0.00 0.00 0.00 0.00
0.00 0.01 0.01 0.01 0.00 0.01 0.01 0.01 0.01 0.00 0.00 0.00 0.00 0.00 0.00 0.00 0.00 0.00 0.00 0.00 0.00 0.00 0.00 0.00 0.00 0.00 0.01 0.01 0.01 0.01 0.01 0.01 0.01 0.01 0.01 0.01 0.00 0.00 0.00 0.00 0.00 0.00 0.00 0.00
0.01 0.00 0.01 0.01 0.00 0.01 0.02 0.01 0.00 0.00 0.00 0.00 0.00 0.00 0.00 0.00 0.00 0.00 0.00 0.00 0.00 0.00 0.00 0.00 0.00 0.00 0.00 0.01 0.01 0.01 0.01 0.01 0.00 0.01 0.01 0.02 0.01 0.01 0.01 0.00 0.00 0.00 0.00 0.00
0.00 0.00 0.00 0.01 0.01 0.01 0.01 0.00 0.00 0.00 0.00 0.00 0.00 0.00 0.00 0.00 0.00 0.00 0.00 0.00 0.00 0.00 0.00 0.00 0.00 0.00 0.00 0.00 0.00 0.00 0.00 0.00 0.00 0.01 0.01 0.01 0.01 0.01 0.01 0.02 0.01 0.00 0.00 0.00
0.00 0.00 0.00 0.00 0.00 0.00 0.00 0.00 0.00 0.00 0.00 0.00 0.00 0.00 0.00 0.00 0.00 0.00 0.00 0.00 0.00 0.00 0.00 0.00 0.00 0.00 0.00 0.01 0.00 0.00 0.00 0.00 0.00 0.01 0.01 0.01 0.01 0.01 0.02 0.02 0.01 0.01 0.01 0.00
0.00 0.00 0.00 0.00 0.00 0.00 0.00 0.00 0.00 0.00 0.00 0.00 0.00 0.00 0.00 0.00 0.00 0.00 0.00 0.00 0.00 0.00 0.00 0.00 0.00 0.00 0.00 0.00 0.00 0.00 0.00 0.00 0.00 0.00 0.00 0.00 0.01 0.01 0.01 0.01 0.01 0.01 0.01 0.01
0.00 0.00 0.00 0.00 0.00 0.00 0.00 0.00 0.00 0.00 0.00 0.00 0.00 0.00 0.00 0.00 0.00 0.00 0.00 0.00 0.00 0.00 0.00 0.00 0.00 0.00 0.00 0.00 0.00 0.01 0.01 0.01 0.01 0.01 0.01 0.01 0.01 0.01 0.01 0.01 0.01 0.00 0.00 0.01
0.00 0.00 0.00 0.00 0.00 0.00 0.00 0.00 0.00 0.00 0.00 0.00 0.00 0.00 0.00 0.00 0.00 0.00 0.00 0.00 0.00 0.00 0.00 0.00 0.00 0.00 0.00 0.00 0.01 0.01 0.01 0.01 0.01 0.01 0.01 0.01 0.01 0.01 0.00 0.00 0.00 0.00 0.00 0.00
0.00 0.00 0.00 0.00 0.00 0.00 0.00 0.00 0.00 0.00 0.00 0.00 0.00 0.00 0.00 0.00 0.00 0.00 0.00 0.00 0.00 0.00 0.00 0.00 0.00 0.01 0.00 0.00 0.01 0.01 0.01 0.01 0.01 0.01 0.01 0.01 0.01 0.00 0.00 0.00 0.00 0.00 0.00 0.00
MSLP
1015.89 1016.47 1016.94 1017.28 1017.50 1017.62 1017.65 1017.62 1017.53 1017.39 1017.21 1017.01 1016.78 1016.56 1016.37 1016.24 1016.18 1016.19 1016.26 1016.36 1016.44 1016.49 1016.46 1016.36 1016.20 1016.02 1015.87 1015.80 1015.86 1016.07 1016.43 1016.90 1017.44 1017.97 1018.44 1018.79 1019.01 1019.08 1019.03 1018.89 1018.71 1018.53 1018.36 1018.23
1016.40 1016.87 1017.22 1017.46 1017.62 1017.72 1017.79 1017.84 1017.86 1017.84 1017.76 1017.62 1017.41 1017.15 1016.88 1016.64 1016.44 1016.33 1016.29 1016.31 1016.36 1016.39 1016.38 1016.30 1016.16 1015.99 1015.84 1015.77 1015.81 1016.00 1016.36 1016.84 1017.41 1017.99 1018.52 1018.93 1019.20 1019.32 1019.29 1019.17 1018.98 1018.79 1018.61 1018.47
1016.70 1017.04 1017.26 1017.40 1017.50 1017.61 1017.74 1017.90 1018.06 1018.18 1018.21 1018.14 1017.95 1017.66 1017.30 1016.92 1016.58 1016.32 1016.17 1016.11 1016.11 1016.15 1016.16 1016.12 1016.03 1015.90 1015.77 1015.70 1015.73 1015.92 1016.26 1016.75 1017.34 1017.95 1018.53 1019.00 1019.33 1019.49 1019.51 1019.41 1019.24 1019.06 1018.89 1018.76
1016.81 1017.01 1017.10 1017.16 1017.23 1017.36 1017.58 1017.87 1018.17 1018.43 1018.59 1018.58 1018.39 1018.04 1017.57 1017.05 1016.55 1016.15 1015.87 1015.73 1015.71 1015.75 1015.81 1015.84 1015.82 1015.76 1015.68 1015.63 1015.67 1015.84 1016.17 1016.65 1017.24 1017.87 1018.48 1019.01 1019.40 1019.62 1019.69 1019.64 1019.51 1019.35 1019.20 1019.09
1016.80 1016.85 1016.83 1016.82 1016.89 1017.08 1017.40 1017.82 1018.27 1018.67 1018.91 1018.95 1018.74 1018.31 1017.72 1017.04 1016.38 1015.82 1015.43 1015.23 1015.19 1015.26 1015.39 1015.52 1015.59 1015.61 1015.60 1015.59 1015.64 1015.80 1016.11 1016.57 1017.15 1017.79 1018.42 1018.99 1019.43 1019.72 1019.85 1019.86 1019.78 1019.65 1019.53 1019.44
1016.75 1016.67 1016.57 1016.52 1016.61 1016.87 1017.30 1017.85 1018.43 1018.92 1019.23 1019.27 1019.02 1018.49 1017.75 1016.91 1016.09 1015.39 1014.90 1014.65 1014.61 1014.74 1014.96 1015.20 1015.39 1015.52 1015.58 1015.62 1015.69 1015.84 1016.12 1016.55 1017.10 1017.72 1018.37 1018.96 1019.45 1019.80 1020.00 1020.06 1020.04 1019.96 1019.87 1019.81
1016.72 1016.55 1016.39 1016.35 1016.48 1016.82 1017.35 1018.01 1018.68 1019.23 1019.56 1019.57 1019.23 1018.58 1017.69 1016.69 1015.73 1014.92 1014.35 1014.07 1014.05 1014.25 1014.58 1014.94 1015.26 1015.50 1015.65 1015.74 1015.83 1015.97 1016.21 1016.59 1017.09 1017.69 1018.33 1018.93 1019.46 1019.86 1020.12 1020.24 1020.27 1020.24 1020.19 1020.15
1016.75 1016.53 1016.37 1016.35 1016.54 1016.96 1017.58 1018.31 1019.02 1019.59 1019.88 1019.82 1019.38 1018.60 1017.57 1016.43 1015.34 1014.45 1013.83 1013.55 1013.57 1013.85 1014.29 1014.78 1015.22 1015.57 1015.80 1015.94 1016.04 1016.16 1016.36 1016.69 1017.14 1017.69 1018.30 1018.91 1019.45 1019.89 1020.20 1020.38 1020.45 1020.47 1020.45 1020.44
1016.82 1016.61 1016.48 1016.52 1016.78 1017.27 1017.94 1018.69 1019.41 1019.93 1020.16 1019.99 1019.44 1018.53 1017.37 1016.13 1014.96 1014.01 1013.39 1013.12 1013.20 1013.57 1014.11 1014.70 1015.26 1015.70 1016.00 1016.18 1016.29 1016.39 1016.55 1016.82 1017.21 1017.71 1018.28 1018.87 1019.42 1019.88 1020.22 1020.45 1020.57 1020.63 1020.65 1020.67
1016.90 1016.73 1016.67 1016.79 1017.12 1017.65 1018.34 1019.08 1019.74 1020.19 1020.30 1020.02 1019.35 1018.33 1017.09 1015.79 1014.59 1013.63 1013.02 1012.80 1012.94 1013.38 1014.00 1014.69 1015.33 1015.84 1016.20 1016.41 1016.53 1016.61 1016.73 1016.94 1017.28 1017.72 1018.25 1018.81 1019.35 1019.83 1020.19 1020.45 1020.62 1020.70 1020.76 1020.81
1016.90 1016.83 1016.87 1017.07 1017.45 1018.01 1018.68 1019.36 1019.92 1020.24 1020.23 1019.83 1019.06 1017.97 1016.70 1015.38 1014.20 1013.28 1012.72 1012.55 1012.76 1013.25 1013.93 1014.67 1015.36 1015.92 1016.32 1016.56 1016.68 1016.76 1016.86 1017.03 1017.32 1017.72 1018.20 1018.74 1019.26 1019.73 1020.11 1020.40 1020.59 1020.71 1020.80 1020.88
1016.80 1016.85 1017.00 1017.28 1017.70 1018.24 1018.85 1019.43 1019.85 1020.04 1019.89 1019.39 1018.54 1017.43 1016.16 1014.90 1013.78 1012.94 1012.45 1012.35 1012.60 1013.13 1013.84 1014.60 1015.31 1015.89 1016.32 1016.58 1016.72 1016.81 1016.91 1017.07 1017.33 1017.69 1018.15 1018.65 1019.15 1019.61 1020.00 1020.30 1020.52 1020.67 1020.78 1020.89
1016.60 1016.78 1017.03 1017.37 1017.80 1018.30 1018.81 1019.25 1019.52 1019.55 1019.27 1018.68 1017.80 1016.70 1015.49 1014.32 1013.31 1012.57 1012.18 1012.14 1012.43 1012.97 1013.68 1014.43 1015.13 1015.72 1016.16 1016.45 1016.63 1016.74 1016.87 1017.04 1017.30 1017.65 1018.08 1018.56 1019.04 1019.49 1019.88 1020.19 1020.42 1020.60 1020.74 1020.88
1016.33 1016.63 1016.96 1017.34 1017.75 1018.17 1018.55 1018.82 1018.92 1018.80 1018.40 1017.75 1016.86 1015.81 1014.71 1013.67 1012.80 1012.18 1011.88 1011.90 1012.21 1012.74 1013.42 1014.14 1014.81 1015.39 1015.84 1016.16 1016.39 1016.56 1016.74 1016.95 1017.23 1017.59 1018.01 1018.47 1018.93 1019.37 1019.75 1020.07 1020.33 1020.53 1020.70 1020.87
1016.07 1016.46 1016.84 1017.22 1017.58 1017.89 1018.11 1018.21 1018.14 1017.86 1017.36 1016.66 1015.79 1014.83 1013.86 1012.97 1012.25 1011.76 1011.55 1011.62 1011.93 1012.44 1013.06 1013.72 1014.36 1014.92 1015.38 1015.74 1016.03 1016.28 1016.52 1016.80 1017.12 1017.50 1017.93 1018.38 1018.83 1019.26 1019.64 1019.96 1020.23 1020.46 1020.67 1020.86
1015.89 1016.33 1016.73 1017.07 1017.34 1017.51 1017.57 1017.49 1017.24 1016.82 1016.24 1015.51 1014.69 1013.83 1013.00 1012.27 1011.70 1011.34 1011.21 1011.31 1011.61 1012.06 1012.62 1013.21 1013.79 1014.33 1014.80 1015.21 1015.57 1015.90 1016.23 1016.58 1016.96 1017.38 1017.82 1018.27 1018.71 1019.13 1019.50 1019.84 1020.13 1020.39 1020.63 1020.86
1015.84 1016.28 1016.65 1016.92 1017.07 1017.09 1016.97 1016.71 1016.30 1015.77 1015.12 1014.40 1013.63 1012.88 1012.19 1011.61 1011.19 1010.94 1010.88 1010.99 1011.26 1011.65 1012.13 1012.64 1013.17 1013.67 1014.15 1014.60 1015.02 1015.44 1015.85 1016.28 1016.72 1017.17 1017.63 1018.09 1018.53 1018.94 1019.32 1019.67 1019.99 1020.29 1020.57 1020.83
1015.90 1016.30 1016.59 1016.75 1016.77 1016.64 1016.35 1015.93 1015.40 1014.77 1014.08 1013.38 1012.69 1012.05 1011.50 1011.06 1010.76 1010.60 1010.59 1010.70 1010.93 1011.25 1011.63 1012.06 1012.52 1012.98 1013.46 1013.93 1014.41 1014.89 1015.38 1015.88 1016.37 1016.86 1017.34 1017.80 1018.24 1018.66 1019.05 1019.42 1019.78 1020.12 1020.44 1020.75
1016.00 1016.31 1016.50 1016.53 1016.41 1016.13 1015.70 1015.16 1014.52 1013.84 1013.15 1012.49 1011.88 1011.36 1010.94 1010.63 1010.44 1010.36 1010.37 1010.47 1010.65 1010.89 1011.18 1011.52 1011.90 1012.32 1012.76 1013.25 1013.75 1014.28 1014.82 1015.37 1015.90 1016.42 1016.91 1017.38 1017.83 1018.26 1018.67 1019.07 1019.46 1019.85 1020.22 1020.58
1016.05 1016.24 1016.29 1016.19 1015.93 1015.52 1014.98 1014.36 1013.67 1012.99 1012.33 1011.74 1011.23 1010.83 1010.54 1010.34 1010.24 1010.22 1010.25 1010.34 1010.46 1010.62 1010.82 1011.07 1011.36 1011.71 1012.12 1012.58 1013.09 1013.64 1014.20 1014.76 1015.31 1015.85 1016.35 1016.83 1017.29 1017.73 1018.17 1018.60 1019.04 1019.48 1019.91 1020.32
1015.95 1015.99 1015.89 1015.66 1015.28 1014.77 1014.17 1013.51 1012.83 1012.18 1011.59 1011.10 1010.72 1010.44 1010.27 1010.18 1010.17 1010.19 1010.24 1010.30 1010.38 1010.46 1010.58 1010.73 1010.94 1011.22 1011.57 1011.99 1012.47 1012.99 1013.55 1014.11 1014.66 1015.19 1015.70 1016.18 1016.65 1017.12 1017.58 1018.05 1018.54 1019.02 1019.50 1019.96
1015.62 1015.50 1015.27 1014.91 1014.44 1013.88 1013.25 1012.61 1011.98 1011.41 1010.94 1010.57 1010.31 1010.17 1010.12 1010.14 1010.19 1010.27 1010.33 1010.38 1010.41 1010.44 1010.47 1010.54 1010.67 1010.87 1011.14 1011.50 1011.92 1012.41 1012.93 1013.46 1013.99 1014.51 1015.02 1015.51 1015.99 1016.47 1016.97 1017.48 1018.00 1018.53 1019.05 1019.56
1015.06 1014.80 1014.43 1013.98 1013.45 1012.87 1012.27 1011.68 1011.15 1010.70 1010.35 1010.12 1010.01 1010.00 1010.06 1010.18 1010.30 1010.42 1010.50 1010.54 1010.55 1010.53 1010.50 1010.50 1010.55 1010.67 1010.87 1011.15 1011.51 1011.93 1012.40 1012.89 1013.39 1013.89 1014.39 1014.88 1015.37 1015.88 1016.40 1016.94 1017.49 1018.05 1018.60 1019.13
1014.32 1013.93 1013.46 1012.94 1012.39 1011.83 1011.29 1010.79 1010.38 1010.06 1009.86 1009.78 1009.80 1009.91 1010.07 1010.27 1010.46 1010.61 1010.71 1010.76 1010.75 1010.70 1010.64 1010.59 1010.58 1010.63 1010.76 1010.97 1011.25 1011.60 1012.01 1012.45 1012.92 1013.39 1013.88 1014.37 1014.87 1015.40 1015.93 1016.49 1017.06 1017.64 1018.20 1018.74
1013.49 1013.00 1012.47 1011.93 1011.39 1010.87 1010.41 1010.03 1009.74 1009.56 1009.50 1009.54 1009.68 1009.88 1010.13 1010.38 1010.62 1010.80 1010.93 1010.98 1010.97 1010.92 1010.83 1010.76 1010.71 1010.71 1010.78 1010.92 1011.14 1011.43 1011.78 1012.17 1012.60 1013.05 1013.52 1014.02 1014.53 1015.06 1015.61 1016.17 1016.75 1017.32 1017.87 1018.40
1012.67 1012.13 1011.59 1011.06 1010.56 1010.12 1009.75 1009.48 1009.31 1009.25 1009.29 1009.43 1009.64 1009.91 1010.20 1010.49 1010.75 1010.95 1011.09 1011.15 1011.15 1011.10 1011.02 1010.94 1010.87 1010.84 1010.87 1010.97 1011.14 1011.37 1011.67 1012.02 1012.42 1012.85 1013.32 1013.81 1014.33 1014.86 1015.42 1015.98 1016.54 1017.09 1017.62 1018.12
Thickness
5696 5683 5675 5678 5682 5684 5683 5678 5676 5684 5697 5696 5692 5696 5702 5708 5710 5709 5711 5713 5715 5719 5725 5728 5730 5731 5730 5730 5729 5728 5727 5725 5724 5722 5719 5717 5715 5715 5715 5714 5713 5712 5711 5710
5679 5675 5683 5687 5686 5683 5679 5674 5673 5681 5693 5692 5688 5691 5700 5705 5708 5711 5712 5713 5715 5717 5721 5724 5727 5728 5728 5728 5727 5726 5726 5725 5724 5722 5720 5718 5715 5714 5713 5713 5712 5711 5710 5709
5674 5679 5689 5685 5680 5676 5673 5671 5672 5675 5683 5686 5684 5682 5691 5702 5708 5712 5715 5716 5717 5718 5719 5722 5723 5725 5726 5726 5726 5727 5725 5724 5723 5722 5719 5717 5715 5713 5712 5711 5710 5709 5709 5708
5676 5684 5685 5681 5677 5675 5667 5679 5678 5676 5669 5664 5674 5662 5681 5694 5699 5706 5712 5715 5717 5720 5721 5722 5723 5723 5725 5726 5727 5726 5724 5723 5722 5721 5719 5717 5713 5709 5709 5709 5709 5709 5708 5707
5674 5681 5680 5676 5678 5678 5672 5680 5676 5672 5666 5660 5666 5661 5673 5689 5691 5703 5711 5716 5719 5722 5723 5723 5725 5725 5726 5726 5725 5725 5723 5721 5721 5720 5719 5717 5713 5711 5709 5709 5708 5708 5707 5707
5678 5685 5684 5681 5682 5682 5678 5671 5666 5659 5656 5649 5662 5659 5668 5683 5698 5707 5715 5719 5721 5723 5724 5725 5726 5725 5725 5725 5724 5723 5721 5720 5720 5719 5718 5717 5714 5711 5710 5708 5707 5706 5706 5706
5671 5678 5683 5685 5674 5674 5671 5655 5642 5640 5637 5644 5663 5661 5673 5700 5711 5717 5720 5721 5724 5724 5724 5723 5722 5722 5723 5722 5722 5722 5720 5718 5718 5718 5717 5716 5715 5713 5711 5709 5707 5706 5705 5705
5658 5658 5675 5680 5675 5667 5665 5658 5640 5634 5634 5644 5659 5659 5684 5710 5718 5724 5726 5726 5725 5724 5725 5725 5725 5724 5724 5723 5722 5721 5720 5718 5718 5717 5717 5716 5715 5713 5712 5710 5708 5706 5705 5705
5657 5659 5679 5683 5683 5675 5661 5656 5658 5645 5645 5642 5651 5667 5690 5710 5714 5719 5722 5724 5724 5726 5726 5726 5726 5725 5725 5724 5722 5722 5720 5718 5717 5717 5716 5715 5714 5713 5712 5710 5709 5707 5706 5706
5669 5661 5672 5679 5680 5674 5670 5662 5649 5645 5638 5637 5651 5662 5675 5698 5705 5714 5718 5721 5725 5726 5727 5727 5727 5726 5726 5725 5724 5722 5721 5719 5718 5717 5716 5715 5714 5713 5712 5711 5708 5707 5706 5705
5675 5662 5664 5670 5668 5664 5662 5659 5652 5644 5644 5639 5640 5661 5696 5702 5709 5713 5719 5723 5725 5727 5727 5728 5728 5727 5726 5724 5722 5720 5719 5717 5716 5716 5715 5714 5713 5712 5711 5710 5708 5707 5706 5705
5673 5659 5653 5663 5675 5678 5672 5664 5655 5645 5644 5643 5643 5662 5707 5709 5713 5717 5720 5724 5727 5728 5729 5728 5727 5725 5723 5721 5720 5719 5718 5717 5716 5715 5714 5713 5712 5711 5710 5709 5707 5706 5705 5704
5674 5660 5648 5651 5659 5668 5668 5667 5664 5656 5648 5642 5644 5667 5706 5709 5713 5718 5721 5724 5725 5726 5726 5725 5723 5723 5722 5721 5720 5719 5718 5717 5716 5714 5712 5711 5710 5710 5709 5708 5706 5705 5704 5702
5682 5662 5654 5650 5655 5664 5665 5668 5665 5658 5648 5647 5655 5672 5696 5704 5709 5715 5720 5723 5724 5724 5724 5723 5722 5722 5723 5722 5721 5719 5717 5716 5715 5713 5711 5709 5709 5709 5708 5707 5705 5704 5703 5701
5681 5665 5665 5667 5673 5672 5672 5673 5669 5664 5665 5660 5670 5676 5695 5705 5710 5716 5719 5721 5722 5721 5722 5722 5722 5722 5721 5720 5719 5718 5717 5715 5714 5711 5710 5709 5709 5708 5706 5705 5703 5702 5701 5700
5675 5668 5666 5668 5674 5672 5671 5675 5675 5673 5674 5674 5677 5684 5705 5711 5713 5715 5717 5719 5719 5721 5723 5723 5723 5722 5721 5721 5719 5718 5716 5715 5713 5711 5710 5709 5707 5705 5704 5703 5701 5699 5698 5697
5668 5665 5659 5657 5667 5668 5664 5680 5680 5680 5683 5682 5680 5694 5707 5708 5711 5714 5717 5719 5720 5721 5723 5723 5724 5724 5724 5723 5721 5719 5718 5715 5712 5711 5709 5707 5706 5704 5702 5701 5698 5697 5695 5694
5668 5662 5654 5652 5660 5653 5676 5695 5694 5690 5692 5694 5697 5702 5707 5710 5715 5718 5720 5720 5721 5723 5724 5724 5725 5725 5725 5724 5722 5720 5717 5714 5712 5709 5707 5706 5704 5702 5700 5698 5696 5695 5693 5691
5673 5663 5651 5647 5649 5659 5680 5693 5693 5688 5690 5702 5702 5706 5709 5713 5714 5715 5722 5724 5725 5727 5727 5728 5728 5727 5725 5723 5721 5718 5715 5713 5710 5708 5707 5705 5703 5701 5698 5696 5694 5692 5690 5689
5664 5664 5652 5645 5649 5651 5677 5697 5701 5695 5687 5706 5707 5706 5708 5709 5698 5707 5721 5724 5725 5727 5728 5727 5726 5725 5722 5721 5720 5716 5713 5711 5710 5710 5708 5705 5703 5701 5698 5696 5693 5691 5689 5686
5653 5651 5648 5644 5648 5660 5685 5697 5698 5680 5688 5709 5710 5710 5709 5706 5708 5715 5721 5723 5725 5726 5727 5727 5725 5723 5722 5721 5719 5715 5713 5712 5713 5711 5707 5704 5702 5700 5698 5694 5691 5688 5685 5682
5653 5647 5644 5643 5646 5659 5692 5693 5688 5694 5707 5710 5710 5711 5711 5711 5713 5715 5718 5719 5721 5722 5723 5723 5721 5720 5719 5719 5717 5714 5712 5714 5711 5708 5705 5702 5699 5697 5695 5691 5687 5684 5681 5677
5657 5662 5660 5661 5668 5684 5691 5695 5702 5704 5705 5708 5709 5711 5712 5711 5710 5712 5713 5715 5716 5717 5718 5718 5717 5715 5714 5715 5715 5712 5712 5710 5708 5704 5702 5699 5696 5694 5692 5688 5684 5680 5677 5674
5658 5664 5662 5663 5673 5683 5689 5695 5700 5704 5705 5708 5709 5710 5710 5708 5708 5709 5709 5709 5710 5712 5712 5713 5712 5710 5709 5710 5711 5711 5710 5708 5705 5701 5698 5695 5692 5689 5687 5685 5682 5679 5675 5672
5659 5659 5660 5663 5674 5681 5688 5692 5696 5700 5702 5704 5705 5706 5705 5705 5704 5704 5704 5704 5705 5706 5707 5707 5707 5706 5706 5706 5706 5706 5705 5704 5700 5697 5694 5691 5689 5687 5683 5681 5679 5678 5677 5676
5654 5658 5661 5666 5677 5677 5682 5689 5693 5695 5696 5698 5699 5698 5699 5700 5698 5699 5698 5699 5700 5701 5701 5701 5701 5701 5700 5701 5701 5700 5700 5699 5696 5692 5689 5687 5684 5681 5679 5676 5672 5672 5672 5671